Regional Weather Roundup
Issued by NWS

Home | Current Version | Previous Version | Graphics & Text | Print | Product List | Glossary Off
Versions: 1 2 3 4 5 6 7 8 9 10 11 12 13 14 15 16 17 18 19 20 21 22 23 24 25 26 27 28 29 30 31 32 33 34 35 36 37 38 39 40 41 42 43 44 45 46 47 48 49 50

000
ASUS43 KDTX 010601
RWRMI
MICHIGAN HOURLY REGIONAL WEATHER ROUNDUP
NATIONAL WEATHER SERVICE DETROIT/PONTIAC MI
200 AM EDT WED JUL 01 2015

NOTE: "FAIR" INDICATES FEW OR NO CLOUDS BELOW 12,000 FEET WITH NO
SIGNIFICANT WEATHER AND/OR OBSTRUCTION TO VISIBILITY.

MIZ047>049-052>055-059>063-066>070-074>076-081>083-010700-
SOUTHEAST LOWER MICHIGAN

CITY           SKY/WX    TMP DP  RH WIND       PRES   REMARKS
ADRIAN         PTCLDY    62  59  90 NW6       29.82
6HR MIN TEMP:  62; 6HR MAX TEMP:  71;

ALMA           CLOUDY    60  59  97 NW10      29.84R
ANN ARBOR      CLOUDY    64  61  90 NW8       29.80S
BAD AXE        CLOUDY    60  55  84 CALM      29.82S
CARO           CLOUDY    61  58  87 CALM      29.80F
DETROIT CITY   CLOUDY    64  62  93 NE5       29.79S FOG
6HR MIN TEMP:  64; 6HR MAX TEMP:  69; 6HR PCP:  0.36;

DETROIT        MOCLDY    63  62  97 W3        29.79
6HR MIN TEMP:  63; 6HR MAX TEMP:  67; 6HR PCP:  0.02;

FLINT          CLOUDY    65  61  87 N6        29.81
6HR MIN TEMP:  64; 6HR MAX TEMP:  70; 6HR PCP:  0.09;

GROSSE ILE     PTCLDY    64  63  94 W6        29.78S
HILLSDALE      CLOUDY    61  61 100 NW9       29.84S FOG
HOWELL         PTCLDY    61  60  97 NW3       29.81S FOG
6HR MIN TEMP:  61; 6HR MAX TEMP:  68;


CITY           SKY/WX    TMP DP  RH WIND       PRES   REMARKS
JACKSON        CLOUDY    62  60  93 NW6       29.83R
6HR MIN TEMP:  62; 6HR MAX TEMP:  68;

LAMBERTVILLE   CLEAR     64  60  88 W3        29.81S
6HR MIN TEMP:  64; 6HR MAX TEMP:  72;

LANSING        CLOUDY    63  61  93 NW6       29.83S FOG
6HR MIN TEMP:  62; 6HR MAX TEMP:  69; 6HR PCP:  0.11;

LAPEER         CLOUDY    60  58  93 CALM      29.81F
MASON          CLOUDY    60  60  98 NW3       29.82S FOG
MONROE         CLOUDY    63  62  98 W3        29.79S FOG
MT. CLEMENS    CLOUDY    62  60  96 N6        29.77F FOG
6HR MIN TEMP:  62; 6HR MAX TEMP:  67; 6HR PCP:  0.16;

PONTIAC        MOCLDY    63  62  97 CALM      29.79S FOG
6HR MIN TEMP:  63; 6HR MAX TEMP:  69; 6HR PCP:  0.04;

PORT HOPE        N/A     59  57  93 CALM      29.80S
6HR MIN TEMP:  59; 6HR MAX TEMP:  62;

PORT HURON     CLOUDY    59  57  94 CALM      29.80S
TRI CITIES     CLOUDY    64  60  87 NW8       29.82
6HR MIN TEMP:  63; 6HR MAX TEMP:  69; 6HR PCP:  0.01;

MIDLAND        CLOUDY    60  58  93 NW8       29.82S
TROY           CLOUDY    64  63  96 N5        29.81F
SAGINAW HB     CLOUDY    63  61  94 CALM      29.81S
$$
MIZ043>046-050>051-056>058-064>065-071>073-077>080-010700-
SOUTHWEST LOWER MICHIGAN

CITY           SKY/WX    TMP DP  RH WIND       PRES   REMARKS
BATTLE CREEK   MOCLDY    61  57  87 NW7       29.85S
6HR MIN TEMP:  60; 6HR MAX TEMP:  68;

BENTON HARBOR  CLEAR     60  54  80 VRB3      29.88
6HR MIN TEMP:  60; 6HR MAX TEMP:  62;

BIG RAPIDS     CLOUDY    55  50  86 N6        29.87S
6HR MIN TEMP:  55; 6HR MAX TEMP:  66;

COLDWATER      CLOUDY    58  57  99 W6        29.85S
6HR MIN TEMP:  57; 6HR MAX TEMP:  69;

FREMONT        CLOUDY    54  52  94 N7        29.87S
HOLLAND        CLEAR     57  53  86 VRB3      29.87
6HR MIN TEMP:  57; 6HR MAX TEMP:  65;

GRAND RAPIDS   CLOUDY    60  56  86 NW8       29.86
6HR MIN TEMP:  59; 6HR MAX TEMP:  70; 6HR PCP:  0.03;

IONIA          CLOUDY    61  59  94 NW6       29.84S
KALAMAZOO      CLEAR     58  54  86 NW7       29.85
6HR MIN TEMP:  58; 6HR MAX TEMP:  67;

LUDINGTON      CLOUDY    56  51  85 N8        29.91R
6HR MIN TEMP:  56; 6HR MAX TEMP:  58;

MARSHALL       CLOUDY    61  59  92 W3        29.84S
MOUNT PLEASANT CLOUDY    57  55  94 NW7       29.84S
6HR MIN TEMP:  57; 6HR MAX TEMP:  64; 6HR PCP:  0.08;

MUSKEGON       PTCLDY    55  51  86 N7        29.88F
6HR MIN TEMP:  55; 6HR MAX TEMP:  66;

SOUTH HAVEN    CLEAR     58  54  86 NW7       29.88S
$$
MIZ016>042-010700-
NORTHERN LOWER MICHIGAN

CITY           SKY/WX    TMP DP  RH WIND       PRES   REMARKS
ALPENA         CLOUDY    61  58  90 VRB5      29.82
6HR MIN TEMP:  60; 6HR MAX TEMP:  65; 6HR PCP: TRACE;

BEAVER ISLAND  CLOUDY    50  48  93 NW5       29.88S
6HR MIN TEMP:  49; 6HR MAX TEMP:  55;

BELLAIRE       CLOUDY    53  49  88 NW3       29.88S
6HR MIN TEMP:  53; 6HR MAX TEMP:  61;

CADILLAC       CLOUDY    50  49  94 NW6       29.87S FOG
CHARLEVOIX     CLOUDY    53  50  91 NW5       29.90S
FRANKFORT      CLOUDY    53  45  75 NW7       29.91S
GAYLORD        FOG       52  52 100 VRB6      29.86  VSB 1
6HR MIN TEMP:  52; 6HR MAX TEMP:  63; 6HR PCP: TRACE;

GRAYLING       CLOUDY    52  51  97 W6        29.87S FOG
HARBOR SPRINGS CLOUDY    54  52  94 CALM      29.86S
HOUGHTON LAKE  CLOUDY    52  51  97 NW9       29.86F FOG
6HR MIN TEMP:  52; 6HR MAX TEMP:  62; 6HR PCP:  0.02;

MANISTEE       CLOUDY    52  46  82 N10       29.91F
OSCODA         CLOUDY    61  59  92 CALM      29.80S
PELLSTON       CLOUDY    54  53  97 W8        29.85S
6HR MIN TEMP:  54; 6HR MAX TEMP:  60; 6HR PCP:  0.01;

ROGERS CITY    CLOUDY    60  59  96 W5        29.83S FOG
TRAVERSE CITY  CLOUDY    53  48  83 NW7       29.88
6HR MIN TEMP:  53; 6HR MAX TEMP:  57;

$$
MIZ007>008-015-010700-
EASTERN UPPER MICHIGAN

CITY           SKY/WX    TMP DP  RH WIND       PRES   REMARKS
KINROSS        CLOUDY    52  52 100 NW8       29.85S VSB 1
6HR MIN TEMP:  52; 6HR MAX TEMP:  54;

MACKINAC ISLAN CLOUDY    54  54 100 N8        29.85R
6HR MIN TEMP:  54; 6HR MAX TEMP:  57; 6HR PCP:  0.02;

NEWBERRY       CLOUDY    45  45  99 NW5       29.89S
6HR MIN TEMP:  45; 6HR MAX TEMP:  51;

S. S. MARIE    MOCLDY    50  48  93 CALM      29.85
6HR MIN TEMP:  50; 6HR MAX TEMP:  55;

MUNISING         N/A     49  46  90 N15       29.94R
6HR MIN TEMP:  46; 6HR MAX TEMP:  49; 6HR PCP:  0.01;

$$
MIZ004>006-011>014-085-010700-
CENTRAL UPPER MICHIGAN

CITY           SKY/WX    TMP DP  RH WIND       PRES   REMARKS
MANISTIQUE     CLOUDY    46  44  93 N10       29.89S
6HR MIN TEMP:  46; 6HR MAX TEMP:  51;

ESCANABA       CLOUDY   N/A N/A N/A N7        29.92S
MENOMINEE      CLOUDY    52  43  71 N9        29.93S
6HR MIN TEMP:  52; 6HR MAX TEMP:  61;

SAWYER-GWINN   CLOUDY    46  42  89 N12       29.95S
$$
MIZ001>003-009>011-084-010700-
WESTERN UPPER MICHIGAN

CITY           SKY/WX    TMP DP  RH WIND       PRES   REMARKS
IRON MOUNTAIN  CLEAR     46  41  82 NW7       29.94
6HR MIN TEMP:  46; 6HR MAX TEMP:  58;

HOUGHTON       CLEAR     42  38  85 N3        29.99
6HR MIN TEMP:  39; 6HR MAX TEMP:  58;

COPPER HARBOR    N/A     46  41  82 N7        29.99S
6HR MIN TEMP:  46; 6HR MAX TEMP:  51;

IRONWOOD       CLEAR     43  41  93 CALM      29.97S
6HR MIN TEMP:  41; 6HR MAX TEMP:  59;

$$

ABBREVIATIONS USED IN REMARKS
   TC - TEMPERATURE IN CELSIUS
  WCI - WIND CHILL INDEX
   HX - HEAT INDEX
  VSB - VISIBILITY



USA.gov is the U.S. government's official web portal to all federal, state and local government web resources and services.